This is the latest recevied weather packets stored in our database for station/object W9WRP. If no packets are shown the sender has not sent any weather packets the latest 10 day(s).
| Time | Temp. | Humidity | Pressure | Rain* | Wind** | Luminosity | Snow |
|---|---|---|---|---|---|---|---|
| 1787430985 | 43.89° C | 15% | 1015.1 hPa | 0 mm | - | 689 W/m² | - |
| 1787430680 | 43.89° C | 15% | 1015.3 hPa | 0 mm | - | 696 W/m² | - |
| 1787430376 | 45° C | 15% | 1015.5 hPa | 0 mm | - | 704 W/m² | - |
| 1787430073 | 44.44° C | 15% | 1015.3 hPa | 0 mm | - | 710 W/m² | - |
| 1787429772 | 45° C | 14% | 1015.5 hPa | 0 mm | - | 710 W/m² | - |
| 1787429468 | 45° C | 14% | 1015.4 hPa | 0 mm | - | 719 W/m² | - |
| 1787429164 | 45° C | 14% | 1015.7 hPa | 0 mm | - | 722 W/m² | - |
| 1787428860 | 43.33° C | 16% | 1015.6 hPa | 0 mm | - | 724 W/m² | - |
| 1787428555 | 43.89° C | 16% | 1015.6 hPa | 0 mm | - | 726 W/m² | - |
| 1787428249 | 44.44° C | 15% | 1015.6 hPa | 0 mm | - | 726 W/m² | - |
| 1787427944 | 43.89° C | 15% | 1015.8 hPa | 0 mm | - | 730 W/m² | - |
| 1787427639 | 43.33° C | 16% | 1016 hPa | 0 mm | - | 732 W/m² | - |
| 1787427335 | 43.33° C | 16% | 1016.1 hPa | 0 mm | - | 735 W/m² | - |
| 1787427031 | 42.78° C | 16% | 1016.1 hPa | 0 mm | - | 736 W/m² | - |
| 1787426727 | 42.78° C | 17% | 1016.1 hPa | 0 mm | - | 739 W/m² | - |
| 1787426422 | 43.33° C | 16% | 1016.3 hPa | 0 mm | - | 738 W/m² | - |
| 1787426119 | 42.78° C | 17% | 1016.4 hPa | 0 mm | - | 736 W/m² | - |
| 1787425815 | 43.33° C | 16% | 1016.2 hPa | 0 mm | - | 736 W/m² | - |
| 1787425510 | 42.78° C | 17% | 1016.3 hPa | 0 mm | - | 733 W/m² | - |
| 1787425206 | 42.78° C | 17% | 1016.4 hPa | 0 mm | - | 730 W/m² | - |
| 1787424900 | 42.22° C | 17% | 1016.7 hPa | 0 mm | - | 730 W/m² | - |
| 1787424599 | 42.78° C | 17% | 1016.8 hPa | 0 mm | - | 726 W/m² | - |
| 1787424294 | 42.22° C | 18% | 1016.8 hPa | 0 mm | - | 724 W/m² | - |
| 1787423989 | 42.22° C | 18% | 1017 hPa | 0 mm | - | 720 W/m² | - |
| 1787423686 | 41.11° C | 18% | 1016.9 hPa | 0 mm | - | 710 W/m² | - |
* Rain latest hour (hover to see other rain measurements)
** Current wind speed in m/s (hover to see current wind gust speed)